Regional Weather Roundup
Issued by NWS

Home | Current Version | Previous Version | Text Only | Print | Product List | Glossary Off
Versions: 1 2 3 4 5 6 7 8 9 10 11 12 13 14 15 16 17 18 19 20 21 22 23 24 25 26 27 28 29 30 31 32 33 34 35 36 37 38 39 40 41 42 43 44 45 46 47 48 49 50

802
ASUS45 KBOU 271910
RWRCO

WEATHER ROUNDUP FOR COLORADO
NATIONAL WEATHER SERVICE DENVER/BOULDER CO
100 PM MDT TUE SEP 27 2016

NOTE: "FAIR" INDICATES FEW OR NO CLOUDS BELOW 12000 FEET WITH NO
SIGNIFICANT WEATHER AND/OR OBSTRUCTIONS TO VISIBILITY.

COZ001>005-013-030-031-272000-
...NORTHWEST COLORADO...

CITY           SKY/WX    TMP DP  RH WIND       PRES   REMARKS
CRAIG          FAIR      71  30  21 VRB3      30.29F
HAYDEN         FAIR      68  32  26 W7        30.30F
MEEKER         FAIR      71  37  28 VRB6      30.29F
MOUNT WERNER   NOT AVBL
STEAMBOAT SPGS FAIR      68  32  26 CALM      30.31F
WALDEN           N/A     66  28  24 NW6       30.38F
$$

COZ006>008-011-272000-
...WEST CENTRAL VALLEYS...

CITY           SKY/WX    TMP DP  RH WIND       PRES   REMARKS
GRAND JUNCTION FAIR      72  36  26 VRB3      30.21F
MONTROSE       FAIR      71  37  28 N9        30.26F
EAGLE          SUNNY     66  30  26 CALM      30.31F
RIFLE          FAIR      70  35  27 VRB5      30.24F
DELTA          NOT AVBL
NUCLA          FAIR      72  34  25 N7        30.31F
$$

COZ017>023-064>068-272000-
...SOUTHWEST COLORADO...

CITY           SKY/WX    TMP DP  RH WIND       PRES   REMARKS
DURANGO        FAIR      69  33  26 NE5       30.32F
CORTEZ         FAIR      72  34  24 SW6       30.28F
PAGOSA SPRINGS FAIR      69  30  23 CALM      30.38F
TELLURIDE      FAIR      67  27  22 W9        30.44F
WOLF CREEK PAS FAIR      50  32  50 SW13G18   30.64F
$$

COZ009-010-012-014-032>034-037-058>063-272000-
...CENTRAL COLORADO...

CITY           SKY/WX    TMP DP  RH WIND       PRES   REMARKS
ASPEN          FAIR      70  31  23 NW8       30.34F
BUENA VISTA    FAIR      70  23  16 S3        30.34F
COPPER MTN     FAIR      57  21  24 CALM      30.62F
BERTHOUD PASS  FAIR      48  34  57 N7G18     30.66S
COTTONWOOD PAS FAIR      68  12  11 CALM      30.47F
GUNNISON       FAIR      65  31  28 CALM      30.36F
KREMMLING      FAIR      70  23  17 CALM      30.35F
LEADVILLE      FAIR      64  20  18 MISG      30.44F
SALIDA         FAIR      73  29  19 SW3       30.39F
SUNLIGHT       FAIR      55  34  44 W5        30.58F
WILKERSON PASS FAIR      55  19  24 SW3       30.59F
$$

COZ069>075-272000-
...SAN LUIS VALLEY/SANGRE DE CRISTO MOUNTAINS...

CITY           SKY/WX    TMP DP  RH WIND       PRES   REMARKS
ALAMOSA        FAIR      68  33  27 W6        30.36F
LA VETA PASS   FAIR      63  30  29 MISG      30.50F
SAGUACHE       NOT AVBL
$$

COZ035-036-038>040-272000-
...NORTHERN COLORADO FRONT RANGE...

CITY           SKY/WX    TMP DP  RH WIND       PRES   REMARKS
DENVER INTL AP FAIR      77  31  18 CALM      30.20F
DMNS CITY PARK   N/A     76  32  19 E5        30.19F
AURORA         MOSUNNY   78  31  18 VRB3      30.22F
FRONT RANGE AP SUNNY     79  30  17 N7        30.22F
ERIE MUNI ARPT FAIR      78  28  15 SE5       30.19F
BOULDER MUN AP FAIR      77  34  20 E6        30.20F
CENTENNIAL     FAIR      76  28  17 VRB3      30.22F
BROOMFIELD     SUNNY     75  32  20 SE5       30.23F
FORT COLLINS   FAIR      77  37  24 SE6       30.16F
LONGMONT       FAIR      80  33  18 SE3       30.20F
$$

COZ041-046-047-076>085-087-088-272000-
...PIKES PEAK/PALMER DIVIDE AND SOUTHERN FOOTHILLS...

CITY           SKY/WX    TMP DP  RH WIND       PRES   REMARKS
COLO. SPRINGS  FAIR      75  28  17 SW6       30.25F
A. F. ACADEMY  FAIR      74  31  20 VRB7      30.25F
SCHRIEVER AFB  NOT AVBL
ELLICOTT       NOT AVBL
FALCON         FAIR      74  27  17 S3        30.30F
FORT CARSON    FAIR      77  29  17 VRB7      30.22F
LIMON          FAIR      81  27  14 CALM      30.19F
MONUMENT HILL  FAIR      73  28  19 N6        30.31F
TRINIDAD       FAIR      78  30  17 MISG      30.22F
$$

COZ042>045-048>051-090-091-272000-
...NORTHEAST COLORADO...

CITY           SKY/WX    TMP DP  RH WIND       PRES   REMARKS
GREELEY ARPT   FAIR      79  37  22 S5        30.17F
AKRON          FAIR      77  33  20 W9        30.16F
BURLINGTON     FAIR      80  33  18 SW6       30.14F
WRAY           FAIR      84  32  15 SW8       30.10
STERLING       FAIR      81  41  24 SW3       30.10F
HOLYOKE        FAIR      84  37  18 W6        30.10F
FORT MORGAN    FAIR      79  31  17 W7        30.17F
$$

COZ086-089-092>099-272000-
...SOUTHEAST COLORADO...

CITY           SKY/WX    TMP DP  RH WIND       PRES   REMARKS
PUEBLO         FAIR      81  34  18 SE10G17   30.15F
LA JUNTA       FAIR      80  34  19 CALM      30.15F
LAMAR          FAIR      82  34  17 CALM      30.11F
SPRINGFIELD    NOT AVBL
$$




USA.gov is the U.S. government's official web portal to all federal, state and local government web resources and services.